Tracking 29892 objects as of 21-Nov-2024
HD Live streaming from Space Station
objects crossing your sky now

STARLINK-1490

Track STARLINK-1490 now!
10-day predictions
STARLINK-1490 is classified as:


NORAD ID: 45777
Int'l Code: 2020-038AZ
Perigee: 379.3 km
Apogee: 384.4 km
Inclination: 53.0 °
Period: 92.0 minutes
Semi major axis: 6752 km
RCS: Unknown
Launch date: June 13, 2020
Source: United States (US)
Launch site: AIR FORCE EASTERN TEST RANGE (AFETR)
Your satellite tracking list
Your tracking list is empty




NASA's NSSDC Master Catalog

Two Line Element Set (TLE):
1 45777U 20038AZ  24324.91667824  .00159783  00000-0  16029-2 0  9994
2 45777  53.0210  83.6607 0003798 250.4937  56.5273 15.64495101  5863
Source of the keplerian elements: AFSPC